Location: Augustenthal
(51.7167°N, 10.2833°E)
Time: 23:25:00
(UTC+00:00)

Cosmos 1455 Rocket - Pass Details

Date: 26 September 2021
Orbit: 605 x 628 km, 82.5° (Epoch: 15 October)

Event Time Altitude Azimuth Distance (km) Brightness Sun altitude
Exits shadow 22:30:26 11° 331° (NNW) 1,947 6.2 -39.2°
Drops below altitude 10° 22:30:34 10° 332° (NNW) 1,975 6.3 -39.2°
Sets 22:33:52 0° 358° (N) 2,898 7.4 -39.3°
